Regional Weather Roundup
Issued by NWS

Home | Current Version | Previous Version | Text Only | Print | Product List | Glossary On
Versions: 1 2 3 4 5 6 7 8 9 10 11 12 13 14 15 16 17 18 19 20 21 22 23 24 25 26 27 28 29 30 31 32 33 34 35 36 37 38 39 40 41 42 43 44 45 46 47 48 49 50
000
ASUS42 KFFC 300810
RWRGA
WEATHER ROUNDUP FOR GEORGIA
NATIONAL WEATHER SERVICE PEACHTREE CITY GA
400 AM EDT SUN AUG 30 2015

NOTE: "FAIR" INDICATES FEW OR NO CLOUDS BELOW 12,000 FEET WITH NO
SIGNIFICANT WEATHER AND/OR OBSTRUCTIONS TO VISIBILITY.

* = USE WITH CAUTION. THE STATIONS MARKED WITH AN ASTERISK MAY NOT
REPORT WEATHER SUCH AS PRECIPITATION, FOG, OR THUNDER AND ARE NOT
QUALITY CONTROLLED BY NWS.

THE REMARK "TC" DENOTES TEMPERATURE READING IN DEGREES CELSIUS.

GAZ001>058-300900-
NORTH GEORGIA

CITY           SKY/WX    TMP DP  RH WIND       PRES   REMARKS
ATLANTA        CLOUDY    72  64  76 SE7       30.11S
ATHENS         CLOUDY    70  66  87 CALM      30.12S
CHAMBLEE       CLOUDY    72  65  78 CALM      30.12S
PEACHTREE CITY LGT RAIN  69  68  96 S3        30.11S FOG
ROME           LGT RAIN  70  68  93 CALM      30.11S
WEST ATLANTA   CLOUDY    72  65  78 CALM      30.11S
GAINESVILLE    CLOUDY    70  63  78 CALM      30.16S
CARTERSVILLE   LGT RAIN  69  67  93 CALM      30.12S


CITY           SKY/WX    TMP DP  RH WIND       PRES   REMARKS
DALTON*        CLOUDY    68  68 100 CALM      30.12S
MARIETTA       CLOUDY    72  65  78 E5        30.12S
BLAIRSVILLE*     N/A     65  57  76 CALM      30.17S HAZE
$$

GAZ059>098-102>109-300900-
CENTRAL GEORGIA

CITY           SKY/WX    TMP DP  RH WIND       PRES   REMARKS
AUGUSTA-BUSH   CLOUDY    69  67  93 CALM      30.08F
AUGUSTA-DANIEL CLOUDY    83  59  44 E5        30.10F
COLUMBUS       CLOUDY    71  70  96 E8        30.04F
MACON          CLOUDY    72  68  87 E3        30.07F
ROBINS AFB     CLOUDY    72  69  91 N2        30.06F


CITY           SKY/WX    TMP DP  RH WIND       PRES   REMARKS
LAGRANGE*      RAIN      74  74 100 SE3       30.07F
SYLVANIA*      CLOUDY    73  70  91 E3        30.09S
MILLEDGEVILLE* CLOUDY    72  64  78 CALM      30.09F
$$

GAZ099>101-110>166-300900-
SOUTH GEORGIA

CITY           SKY/WX    TMP DP  RH WIND       PRES   REMARKS
SAVANNAH       RAIN      73  69  87 W7        30.07S
VALDOSTA       CLOUDY    73  72  96 CALM      30.02F
ALMA           CLOUDY    74  73  97 E3        30.04F
ST SIMONS      CLOUDY    77  74  90 SW5       30.04F
FT STEWART     LGT RAIN  73  72  94 CALM      30.06R
ALBANY         HVY RAIN  72  70  93 S7        30.07S FOG
HUNTER AFB     CLOUDY    72  72 100 W3        30.03F
MOODY AFB      CLOUDY    72  70  94 N3        30.02F
BRUNSWICK      CLOUDY    72  72 100 CALM      30.05F


CITY           SKY/WX    TMP DP  RH WIND       PRES   REMARKS
BAINBRIDGE*    CLEAR     72  70  94 CALM      30.03F
MOULTRIE*      MOCLDY    72  70  94 CALM      30.05S
VIDALIA*       CLOUDY    72  70  94 NE5       30.06F
WAYCROSS*      DRIZZLE   77  76  98 E5        30.03F
DOUGLAS*       CLOUDY    75  73  94 E3        30.05F
$$



USA.gov is the U.S. government's official web portal to all federal, state and local government web resources and services.